DLH3825 EGKK-EDDM

Flight info

Callsign DLH3825
Flight time 1h 26m
Altitude 23000
Route DVR L9 KONAN/N0448F390 UL607 SPI DCT MOVUM T109 HAREM/N0376F230 T104 ROKIL ROKIL1A
Aircraft A320/M-SDE3FGHIRWY/LB1

Departure

Time 2026-05-06 13:08
Airport London Gatwick Airport (EGKK)

Arrival

Time 2026-05-06 14:34
Airport Munich Airport (EDDM)
Time Latitude Longitude Altitude Speed Heading
2026-05-06 11:59 51.15481 -0.17031 205 ft 0 kts 348°
2026-05-06 12:31 51.15480 -0.17031 205 ft 0 kts 348°
2026-05-06 12:48 51.15477 -0.17029 232 ft 2 kts 348°
2026-05-06 12:48 51.15460 -0.17024 207 ft 2 kts 348°
2026-05-06 12:48 51.15443 -0.17017 208 ft 3 kts 327°
2026-05-06 12:49 51.15430 -0.16997 214 ft 3 kts 289°
2026-05-06 12:49 51.15427 -0.16978 207 ft 0 kts 272°
2026-05-06 12:54 51.15417 -0.17070 212 ft 13 kts 258°
2026-05-06 12:54 51.15388 -0.17200 214 ft 12 kts 251°
2026-05-06 12:54 51.15358 -0.17342 210 ft 15 kts 245°
2026-05-06 12:54 51.15302 -0.17428 207 ft 7 kts 250°
2026-05-06 12:55 51.15287 -0.17557 209 ft 16 kts 258°
2026-05-06 12:55 51.15263 -0.17734 209 ft 16 kts 258°
2026-05-06 12:55 51.15237 -0.17917 205 ft 17 kts 258°
2026-05-06 12:55 51.15209 -0.18121 205 ft 20 kts 257°
2026-05-06 12:56 51.15186 -0.18327 212 ft 18 kts 262°
2026-05-06 12:56 51.15160 -0.18511 213 ft 16 kts 257°
2026-05-06 12:56 51.15134 -0.18707 205 ft 20 kts 257°
2026-05-06 12:56 51.15106 -0.18914 207 ft 18 kts 258°
2026-05-06 12:57 51.15081 -0.19104 210 ft 18 kts 257°
2026-05-06 12:57 51.15055 -0.19280 213 ft 14 kts 257°
2026-05-06 12:57 51.15033 -0.19427 208 ft 13 kts 256°
2026-05-06 12:57 51.15018 -0.19560 208 ft 11 kts 258°
2026-05-06 12:58 51.15002 -0.19677 209 ft 10 kts 257°
2026-05-06 12:58 51.14985 -0.19796 212 ft 11 kts 257°
2026-05-06 12:58 51.14967 -0.19916 208 ft 11 kts 257°
2026-05-06 12:58 51.14952 -0.20031 210 ft 10 kts 258°
2026-05-06 12:59 51.14943 -0.20101 205 ft 0 kts 258°
2026-05-06 13:00 51.14939 -0.20130 216 ft 1 kts 258°
2026-05-06 13:00 51.14938 -0.20139 215 ft 0 kts 258°
2026-05-06 13:00 51.14937 -0.20140 215 ft 0 kts 258°
2026-05-06 13:01 51.14932 -0.20179 208 ft 10 kts 258°
2026-05-06 13:01 51.14919 -0.20281 205 ft 9 kts 258°
2026-05-06 13:01 51.14914 -0.20314 205 ft 1 kts 258°
2026-05-06 13:01 51.14913 -0.20325 215 ft 1 kts 258°
2026-05-06 13:02 51.14912 -0.20328 215 ft 0 kts 258°
2026-05-06 13:02 51.14906 -0.20377 207 ft 13 kts 257°
2026-05-06 13:03 51.14883 -0.20537 209 ft 16 kts 257°
2026-05-06 13:03 51.14860 -0.20702 205 ft 14 kts 257°
2026-05-06 13:03 51.14849 -0.20778 205 ft 0 kts 257°
2026-05-06 13:04 51.14842 -0.20829 205 ft 16 kts 257°
2026-05-06 13:05 51.14814 -0.21034 210 ft 10 kts 257°
2026-05-06 13:05 51.14799 -0.21141 214 ft 10 kts 257°
2026-05-06 13:05 51.14785 -0.21240 205 ft 9 kts 257°
2026-05-06 13:05 51.14769 -0.21329 210 ft 8 kts 246°
2026-05-06 13:06 51.14741 -0.21394 209 ft 6 kts 216°
2026-05-06 13:06 51.14694 -0.21398 211 ft 13 kts 165°
2026-05-06 13:06 51.14598 -0.21322 212 ft 14 kts 164°
2026-05-06 13:06 51.14533 -0.21233 210 ft 12 kts 117°
2026-05-06 13:07 51.14525 -0.21135 218 ft 0 kts 78°
2026-05-06 13:07 51.14528 -0.21117 216 ft 10 kts 77°
2026-05-06 13:07 51.14612 -0.20519 217 ft 98 kts 77°
2026-05-06 13:08 51.14806 -0.19095 249 ft 158 kts 74°
2026-05-06 13:08 51.15037 -0.17318 998 ft 167 kts 74°
2026-05-06 13:08 51.15278 -0.15494 1866 ft 168 kts 74°
2026-05-06 13:08 51.15541 -0.13657 2626 ft 175 kts 71°
2026-05-06 13:09 51.15822 -0.11688 3149 ft 190 kts 73°
2026-05-06 13:09 51.16124 -0.09543 3644 ft 208 kts 74°
2026-05-06 13:09 51.16455 -0.07186 4200 ft 227 kts 75°
2026-05-06 13:09 51.16807 -0.04638 4840 ft 245 kts 76°
2026-05-06 13:10 51.16900 -0.01822 5530 ft 264 kts 89°
2026-05-06 13:10 51.16837 0.01151 5948 ft 270 kts 89°
2026-05-06 13:10 51.16774 0.04158 6685 ft 274 kts 89°
2026-05-06 13:10 51.16712 0.07203 7613 ft 277 kts 89°
2026-05-06 13:11 51.16652 0.10301 8544 ft 283 kts 89°
2026-05-06 13:11 51.16592 0.13467 9441 ft 288 kts 89°
2026-05-06 13:11 51.16538 0.16686 10299 ft 293 kts 88°
2026-05-06 13:11 51.16526 0.19960 11103 ft 298 kts 88°
2026-05-06 13:12 51.16537 0.23238 11899 ft 302 kts 88°
2026-05-06 13:12 51.16556 0.26667 12717 ft 307 kts 88°
2026-05-06 13:12 51.16573 0.30037 13499 ft 312 kts 88°
2026-05-06 13:12 51.16587 0.33579 14243 ft 317 kts 88°
2026-05-06 13:13 51.16595 0.37109 14960 ft 321 kts 89°
2026-05-06 13:13 51.16596 0.40684 15666 ft 325 kts 89°
2026-05-06 13:13 51.16596 0.44138 16341 ft 328 kts 89°
2026-05-06 13:13 51.16595 0.47892 17069 ft 332 kts 89°
2026-05-06 13:14 51.16577 0.51619 17576 ft 343 kts 90°
2026-05-06 13:14 51.16521 0.55502 17869 ft 360 kts 91°
2026-05-06 13:14 51.16445 0.59578 18129 ft 375 kts 92°
2026-05-06 13:14 51.16359 0.63786 18566 ft 384 kts 92°
2026-05-06 13:15 51.16269 0.68059 19112 ft 388 kts 92°
2026-05-06 13:15 51.16180 0.72372 19708 ft 391 kts 92°
2026-05-06 13:15 51.16095 0.76692 20293 ft 394 kts 92°
2026-05-06 13:15 51.16009 0.81102 20865 ft 397 kts 92°
2026-05-06 13:16 51.15922 0.85514 21457 ft 401 kts 92°
2026-05-06 13:16 51.15833 0.89978 22046 ft 404 kts 92°
2026-05-06 13:16 51.15741 0.94473 22631 ft 407 kts 92°
2026-05-06 13:16 51.15647 0.98990 22919 ft 409 kts 93°
2026-05-06 13:17 51.15551 1.03465 22967 ft 399 kts 93°
2026-05-06 13:17 51.15453 1.07883 22967 ft 399 kts 93°
2026-05-06 13:17 51.15353 1.12297 22970 ft 398 kts 93°
2026-05-06 13:17 51.15253 1.16706 22967 ft 398 kts 93°
2026-05-06 13:18 51.15156 1.21060 22965 ft 398 kts 93°
2026-05-06 13:18 51.15058 1.25462 22964 ft 398 kts 93°
2026-05-06 13:18 51.14957 1.29881 22962 ft 398 kts 93°
2026-05-06 13:18 51.14853 1.34281 22961 ft 398 kts 93°
2026-05-06 13:19 51.14746 1.38694 22962 ft 399 kts 93°
2026-05-06 13:19 51.14639 1.43105 22961 ft 399 kts 93°
2026-05-06 13:19 51.14530 1.47520 22963 ft 398 kts 93°
2026-05-06 13:19 51.14417 1.51927 22963 ft 398 kts 93°
2026-05-06 13:20 51.14301 1.56334 22964 ft 398 kts 93°
2026-05-06 13:20 51.14184 1.60744 22971 ft 398 kts 93°
2026-05-06 13:20 51.14069 1.65143 22968 ft 398 kts 93°
2026-05-06 13:20 51.13950 1.69554 22967 ft 398 kts 93°
2026-05-06 13:21 51.13828 1.73949 22969 ft 398 kts 93°
2026-05-06 13:21 51.13702 1.78353 22967 ft 398 kts 93°
2026-05-06 13:21 51.13576 1.82761 22967 ft 398 kts 93°
2026-05-06 13:21 51.13450 1.87160 22969 ft 398 kts 93°
2026-05-06 13:22 51.13323 1.91560 22973 ft 398 kts 93°
2026-05-06 13:22 51.13194 1.95965 22975 ft 398 kts 93°
2026-05-06 13:22 51.13066 2.00305 22977 ft 398 kts 94°
2026-05-06 13:22 51.12890 2.04755 22972 ft 398 kts 95°
2026-05-06 13:23 51.12670 2.09086 22971 ft 398 kts 96°
2026-05-06 13:23 51.12422 2.13474 22983 ft 398 kts 96°
2026-05-06 13:23 51.12162 2.17856 22980 ft 397 kts 96°
2026-05-06 13:23 51.11902 2.22236 22965 ft 397 kts 96°
2026-05-06 13:24 51.11648 2.26616 22969 ft 397 kts 96°
2026-05-06 13:24 51.11402 2.30987 22958 ft 397 kts 96°
2026-05-06 13:24 51.11158 2.35373 22952 ft 397 kts 95°
2026-05-06 13:24 51.10917 2.39754 22953 ft 397 kts 96°
2026-05-06 13:25 51.10675 2.44145 22951 ft 398 kts 96°
2026-05-06 13:25 51.10433 2.48522 22957 ft 397 kts 96°
2026-05-06 13:25 51.10187 2.52899 22948 ft 397 kts 96°
2026-05-06 13:25 51.09935 2.57274 22953 ft 397 kts 96°
2026-05-06 13:26 51.09680 2.61652 22950 ft 397 kts 96°
2026-05-06 13:26 51.09300 2.65994 22947 ft 396 kts 104°
2026-05-06 13:26 51.08564 2.70210 22944 ft 396 kts 107°
2026-05-06 13:26 51.07797 2.74415 22946 ft 396 kts 107°
2026-05-06 13:27 51.07036 2.78614 22963 ft 395 kts 107°
2026-05-06 13:27 51.06276 2.82819 22948 ft 396 kts 107°
2026-05-06 13:27 51.05516 2.87020 22954 ft 396 kts 107°
2026-05-06 13:27 51.04754 2.91224 22946 ft 396 kts 107°
2026-05-06 13:28 51.03990 2.95428 22947 ft 396 kts 107°
2026-05-06 13:28 51.03222 2.99623 22959 ft 395 kts 107°
2026-05-06 13:28 51.02452 3.03815 22947 ft 395 kts 107°
2026-05-06 13:28 51.01679 3.08007 22942 ft 395 kts 107°
2026-05-06 13:29 51.00905 3.12197 22948 ft 395 kts 107°
2026-05-06 13:29 51.00142 3.16331 22936 ft 395 kts 107°
2026-05-06 13:29 50.99358 3.20570 22939 ft 395 kts 107°
2026-05-06 13:29 50.98593 3.24697 22935 ft 395 kts 107°
2026-05-06 13:30 50.97803 3.28931 22925 ft 395 kts 107°
2026-05-06 13:30 50.97020 3.33112 22924 ft 395 kts 107°
2026-05-06 13:30 50.96237 3.37287 22929 ft 395 kts 107°
2026-05-06 13:30 50.95458 3.41445 22917 ft 395 kts 107°
2026-05-06 13:31 50.94673 3.45642 22918 ft 395 kts 107°
2026-05-06 13:31 50.93891 3.49819 22924 ft 395 kts 107°
2026-05-06 13:31 50.93103 3.54000 22921 ft 395 kts 107°
2026-05-06 13:31 50.92309 3.58187 22924 ft 395 kts 107°
2026-05-06 13:32 50.91533 3.62280 22918 ft 395 kts 107°
2026-05-06 13:32 50.90742 3.66447 22915 ft 395 kts 108°
2026-05-06 13:32 50.89945 3.70608 22918 ft 395 kts 107°
2026-05-06 13:32 50.89145 3.74764 22909 ft 395 kts 108°
2026-05-06 13:33 50.88341 3.78916 22909 ft 395 kts 108°
2026-05-06 13:33 50.87534 3.83075 22907 ft 395 kts 108°
2026-05-06 13:33 50.86729 3.87226 22912 ft 395 kts 108°
2026-05-06 13:33 50.85921 3.91384 22907 ft 394 kts 108°
2026-05-06 13:34 50.85112 3.95531 22903 ft 395 kts 108°
2026-05-06 13:34 50.84305 3.99663 22913 ft 394 kts 108°
2026-05-06 13:34 50.83492 4.03823 22903 ft 394 kts 108°
2026-05-06 13:34 50.82682 4.07950 22899 ft 394 kts 108°
2026-05-06 13:35 50.81869 4.12101 22911 ft 394 kts 108°
2026-05-06 13:35 50.81058 4.16240 22905 ft 394 kts 108°
2026-05-06 13:35 50.80244 4.20374 22909 ft 393 kts 108°
2026-05-06 13:35 50.79430 4.24488 22911 ft 393 kts 108°
2026-05-06 13:36 50.78887 4.27222 22910 ft 392 kts 108°
2026-05-06 13:36 50.78071 4.31331 22901 ft 392 kts 108°
2026-05-06 13:36 50.77254 4.35439 22907 ft 392 kts 108°
2026-05-06 13:36 50.76438 4.39527 22909 ft 391 kts 108°
2026-05-06 13:37 50.75617 4.43634 22906 ft 390 kts 108°
2026-05-06 13:37 50.74801 4.47720 22909 ft 390 kts 108°
2026-05-06 13:37 50.73984 4.51798 22904 ft 390 kts 108°
2026-05-06 13:37 50.73162 4.55877 22902 ft 390 kts 108°
2026-05-06 13:38 50.72339 4.59953 22907 ft 389 kts 108°
2026-05-06 13:38 50.71530 4.64022 22904 ft 389 kts 108°
2026-05-06 13:38 50.70738 4.68097 22907 ft 388 kts 107°
2026-05-06 13:38 50.69955 4.72175 22903 ft 388 kts 107°
2026-05-06 13:39 50.69174 4.76249 22901 ft 388 kts 107°
2026-05-06 13:39 50.68388 4.80311 22903 ft 388 kts 107°
2026-05-06 13:39 50.67608 4.84314 22899 ft 388 kts 107°
2026-05-06 13:39 50.66799 4.88448 22889 ft 388 kts 107°
2026-05-06 13:40 50.65740 4.93829 22896 ft 388 kts 108°
2026-05-06 13:40 50.65201 4.96515 22899 ft 388 kts 108°
2026-05-06 13:40 50.64375 5.00558 22899 ft 388 kts 108°
2026-05-06 13:40 50.63539 5.04596 22898 ft 387 kts 108°
2026-05-06 13:41 50.62699 5.08628 22894 ft 388 kts 108°
2026-05-06 13:41 50.61863 5.12657 22892 ft 388 kts 108°
2026-05-06 13:41 50.61025 5.16701 22896 ft 388 kts 108°
2026-05-06 13:41 50.60190 5.20733 22896 ft 388 kts 108°
2026-05-06 13:42 50.59353 5.24769 22903 ft 387 kts 108°
2026-05-06 13:42 50.58513 5.28805 22902 ft 388 kts 108°
2026-05-06 13:42 50.57675 5.32826 22899 ft 387 kts 108°
2026-05-06 13:42 50.56835 5.36855 22905 ft 387 kts 108°
2026-05-06 13:43 50.55995 5.40882 22903 ft 388 kts 108°
2026-05-06 13:43 50.55152 5.44912 22898 ft 387 kts 108°
2026-05-06 13:43 50.54308 5.48932 22897 ft 388 kts 108°
2026-05-06 13:43 50.53461 5.52950 22901 ft 388 kts 109°
2026-05-06 13:44 50.52607 5.56989 22891 ft 388 kts 109°
2026-05-06 13:44 50.51755 5.61012 22884 ft 388 kts 109°
2026-05-06 13:44 50.50918 5.65048 22879 ft 389 kts 108°
2026-05-06 13:44 50.50151 5.69116 22890 ft 389 kts 106°
2026-05-06 13:45 50.49428 5.73206 22883 ft 389 kts 106°
2026-05-06 13:45 50.48006 5.81401 22874 ft 389 kts 106°
2026-05-06 13:45 50.47284 5.85496 22864 ft 390 kts 106°
2026-05-06 13:46 50.46553 5.89588 22862 ft 390 kts 106°
2026-05-06 13:46 50.45808 5.93694 22843 ft 390 kts 107°
2026-05-06 13:46 50.45058 5.97778 22847 ft 390 kts 107°
2026-05-06 13:46 50.44301 6.01869 22847 ft 391 kts 107°
2026-05-06 13:47 50.43542 6.05968 22845 ft 391 kts 107°
2026-05-06 13:47 50.42785 6.10058 22841 ft 391 kts 107°
2026-05-06 13:47 50.42029 6.14145 22841 ft 391 kts 108°
2026-05-06 13:47 50.41280 6.18193 22832 ft 391 kts 108°
2026-05-06 13:48 50.40507 6.22339 22832 ft 391 kts 107°
2026-05-06 13:48 50.39754 6.26383 22832 ft 392 kts 108°
2026-05-06 13:48 50.38991 6.30478 22826 ft 391 kts 108°
2026-05-06 13:48 50.38223 6.34583 22815 ft 392 kts 108°
2026-05-06 13:49 50.37456 6.38673 22807 ft 392 kts 108°
2026-05-06 13:49 50.36688 6.42760 22808 ft 392 kts 108°
2026-05-06 13:49 50.35917 6.46861 22804 ft 392 kts 108°
2026-05-06 13:49 50.35145 6.50960 22803 ft 392 kts 108°
2026-05-06 13:50 50.34370 6.55065 22803 ft 393 kts 108°
2026-05-06 13:50 50.33597 6.59147 22791 ft 393 kts 108°
2026-05-06 13:50 50.32814 6.63271 22800 ft 394 kts 108°
2026-05-06 13:50 50.32031 6.67377 22792 ft 394 kts 108°
2026-05-06 13:51 50.31245 6.71487 22794 ft 395 kts 108°
2026-05-06 13:51 50.30458 6.75608 22790 ft 395 kts 108°
2026-05-06 13:51 50.29672 6.79726 22798 ft 396 kts 109°
2026-05-06 13:51 50.28880 6.83849 22799 ft 396 kts 109°
2026-05-06 13:52 50.28085 6.87977 22794 ft 397 kts 109°
2026-05-06 13:52 50.27289 6.92114 22802 ft 397 kts 109°
2026-05-06 13:52 50.26490 6.96250 22794 ft 398 kts 109°
2026-05-06 13:52 50.25690 7.00390 22802 ft 398 kts 109°
2026-05-06 13:53 50.24889 7.04530 22795 ft 399 kts 109°
2026-05-06 13:53 50.24095 7.08624 22802 ft 399 kts 109°
2026-05-06 13:53 50.23274 7.12834 22798 ft 400 kts 109°
2026-05-06 13:53 50.22472 7.16928 22795 ft 400 kts 109°
2026-05-06 13:54 50.21656 7.21084 22801 ft 400 kts 109°
2026-05-06 13:54 50.20839 7.25238 22804 ft 400 kts 109°
2026-05-06 13:54 50.20022 7.29390 22798 ft 400 kts 109°
2026-05-06 13:54 50.19204 7.33543 22804 ft 400 kts 109°
2026-05-06 13:55 50.18386 7.37691 22804 ft 400 kts 109°
2026-05-06 13:55 50.17566 7.41832 22804 ft 400 kts 109°
2026-05-06 13:55 50.16748 7.45957 22802 ft 400 kts 109°
2026-05-06 13:55 50.15923 7.50112 22802 ft 400 kts 109°
2026-05-06 13:56 50.15100 7.54256 22805 ft 399 kts 109°
2026-05-06 13:56 50.14279 7.58386 22802 ft 399 kts 109°
2026-05-06 13:56 50.13456 7.62509 22803 ft 398 kts 109°
2026-05-06 13:56 50.12632 7.66632 22805 ft 398 kts 109°
2026-05-06 13:57 50.11806 7.70743 22803 ft 398 kts 109°
2026-05-06 13:57 50.10977 7.74853 22802 ft 397 kts 109°
2026-05-06 13:57 50.10149 7.78954 22805 ft 396 kts 109°
2026-05-06 13:57 50.09320 7.83054 22800 ft 396 kts 109°
2026-05-06 13:58 50.08491 7.87139 22796 ft 396 kts 109°
2026-05-06 13:58 50.07662 7.91221 22797 ft 395 kts 109°
2026-05-06 13:58 50.06834 7.95279 22794 ft 395 kts 109°
2026-05-06 13:58 50.06002 7.99366 22792 ft 395 kts 109°
2026-05-06 13:59 50.05171 8.03442 22792 ft 395 kts 109°
2026-05-06 13:59 50.04341 8.07499 22795 ft 394 kts 109°
2026-05-06 13:59 50.03509 8.11564 22797 ft 394 kts 109°
2026-05-06 13:59 50.02690 8.15577 22795 ft 394 kts 109°
2026-05-06 14:00 50.01857 8.19644 22796 ft 394 kts 109°
2026-05-06 14:00 50.01022 8.23696 22786 ft 393 kts 110°
2026-05-06 14:00 50.00181 8.27743 22787 ft 393 kts 110°
2026-05-06 14:00 49.99338 8.31793 22785 ft 393 kts 110°
2026-05-06 14:01 49.98500 8.35819 22791 ft 393 kts 110°
2026-05-06 14:01 49.97658 8.39868 22796 ft 393 kts 109°
2026-05-06 14:01 49.96817 8.43904 22797 ft 392 kts 110°
2026-05-06 14:01 49.95975 8.47934 22778 ft 392 kts 110°
2026-05-06 14:02 49.95091 8.51946 22781 ft 391 kts 114°
2026-05-06 14:02 49.93872 8.55692 22781 ft 389 kts 122°
2026-05-06 14:02 49.92525 8.59337 22781 ft 389 kts 122°
2026-05-06 14:02 49.91180 8.62985 22789 ft 389 kts 122°
2026-05-06 14:03 49.89840 8.66627 22792 ft 388 kts 122°
2026-05-06 14:03 49.88504 8.70259 22788 ft 387 kts 122°
2026-05-06 14:03 49.87172 8.73875 22793 ft 387 kts 121°
2026-05-06 14:03 49.85835 8.77498 22786 ft 387 kts 122°
2026-05-06 14:04 49.84498 8.81111 22791 ft 386 kts 122°
2026-05-06 14:04 49.83162 8.84704 22790 ft 385 kts 122°
2026-05-06 14:04 49.81822 8.88299 22791 ft 385 kts 122°
2026-05-06 14:04 49.80485 8.91878 22793 ft 384 kts 122°
2026-05-06 14:05 49.79160 8.95420 22791 ft 384 kts 122°
2026-05-06 14:05 49.77823 8.98990 22798 ft 383 kts 122°
2026-05-06 14:05 49.76485 9.02559 22796 ft 383 kts 122°
2026-05-06 14:05 49.75153 9.06116 22789 ft 382 kts 122°
2026-05-06 14:06 49.73819 9.09683 22796 ft 382 kts 122°
2026-05-06 14:06 49.72489 9.13232 22794 ft 382 kts 122°
2026-05-06 14:06 49.71156 9.16777 22804 ft 381 kts 122°
2026-05-06 14:06 49.69819 9.20320 22794 ft 381 kts 122°
2026-05-06 14:07 49.68489 9.23844 22795 ft 381 kts 122°
2026-05-06 14:07 49.67155 9.27377 22804 ft 381 kts 122°
2026-05-06 14:07 49.65820 9.30907 22796 ft 380 kts 122°
2026-05-06 14:07 49.64485 9.34431 22802 ft 380 kts 123°
2026-05-06 14:08 49.63151 9.37949 22794 ft 380 kts 123°
2026-05-06 14:08 49.61764 9.41418 22793 ft 379 kts 128°
2026-05-06 14:08 49.60087 9.44531 22781 ft 377 kts 134°
2026-05-06 14:08 49.58353 9.47569 22789 ft 377 kts 134°
2026-05-06 14:09 49.56626 9.50603 22796 ft 377 kts 134°
2026-05-06 14:09 49.54896 9.53641 22807 ft 377 kts 134°
2026-05-06 14:09 49.53189 9.56634 22807 ft 377 kts 134°
2026-05-06 14:09 49.51437 9.59698 22806 ft 377 kts 134°
2026-05-06 14:10 49.49705 9.62719 22811 ft 377 kts 134°
2026-05-06 14:10 49.47967 9.65748 22801 ft 377 kts 134°
2026-05-06 14:10 49.46254 9.68727 22811 ft 377 kts 134°
2026-05-06 14:10 49.44495 9.71786 22807 ft 377 kts 134°
2026-05-06 14:11 49.42776 9.74774 22809 ft 378 kts 134°
2026-05-06 14:11 49.41037 9.77796 22826 ft 378 kts 134°
2026-05-06 14:11 49.39272 9.80862 22813 ft 378 kts 134°
2026-05-06 14:11 49.37556 9.83847 22809 ft 378 kts 134°
2026-05-06 14:12 49.35810 9.86877 22807 ft 379 kts 134°
2026-05-06 14:12 49.34062 9.89897 22819 ft 379 kts 134°
2026-05-06 14:12 49.32310 9.92916 22815 ft 379 kts 135°
2026-05-06 14:12 49.30555 9.95935 22818 ft 379 kts 134°
2026-05-06 14:13 49.28801 9.98948 22819 ft 379 kts 135°
2026-05-06 14:13 49.27046 10.01960 22817 ft 379 kts 135°
2026-05-06 14:13 49.25287 10.04980 22809 ft 379 kts 135°
2026-05-06 14:13 49.23892 10.07377 22816 ft 380 kts 135°
2026-05-06 14:14 49.22474 10.09813 22815 ft 380 kts 135°
2026-05-06 14:14 49.20715 10.12828 22816 ft 380 kts 135°
2026-05-06 14:14 49.18978 10.15795 22813 ft 380 kts 135°
2026-05-06 14:14 49.17190 10.18846 22805 ft 380 kts 135°
2026-05-06 14:15 49.15426 10.21851 22806 ft 380 kts 135°
2026-05-06 14:15 49.13656 10.24863 22809 ft 381 kts 135°
2026-05-06 14:15 49.11888 10.27782 22805 ft 380 kts 136°
2026-05-06 14:15 49.10066 10.30719 22809 ft 380 kts 137°
2026-05-06 14:16 49.08233 10.33637 22809 ft 380 kts 137°
2026-05-06 14:16 49.06377 10.36585 22810 ft 380 kts 137°
2026-05-06 14:16 49.04573 10.39450 22814 ft 380 kts 137°
2026-05-06 14:16 49.02746 10.42354 22819 ft 380 kts 137°
2026-05-06 14:17 49.00920 10.45266 22731 ft 376 kts 137°
2026-05-06 14:17 48.99141 10.48118 22457 ft 367 kts 137°
2026-05-06 14:17 48.97396 10.50917 22190 ft 363 kts 137°
2026-05-06 14:17 48.95659 10.53690 21766 ft 360 kts 137°
2026-05-06 14:18 48.93939 10.56429 21287 ft 357 kts 137°
2026-05-06 14:18 48.92231 10.59150 20803 ft 354 kts 137°
2026-05-06 14:18 48.90537 10.61846 20320 ft 351 kts 138°
2026-05-06 14:18 48.88857 10.64515 19843 ft 349 kts 138°
2026-05-06 14:19 48.87183 10.67169 19365 ft 347 kts 138°
2026-05-06 14:19 48.85522 10.69801 18878 ft 345 kts 138°
2026-05-06 14:19 48.83860 10.72431 18408 ft 344 kts 138°
2026-05-06 14:19 48.82204 10.75047 17914 ft 343 kts 138°
2026-05-06 14:20 48.80558 10.77648 17421 ft 340 kts 138°
2026-05-06 14:20 48.78921 10.80228 16952 ft 338 kts 138°
2026-05-06 14:20 48.77297 10.82777 16500 ft 336 kts 139°
2026-05-06 14:20 48.75677 10.85312 16037 ft 333 kts 139°
2026-05-06 14:21 48.74070 10.87829 15587 ft 332 kts 139°
2026-05-06 14:21 48.72472 10.90329 15140 ft 330 kts 139°
2026-05-06 14:21 48.70872 10.92826 14691 ft 328 kts 139°
2026-05-06 14:21 48.69288 10.95298 14243 ft 327 kts 139°
2026-05-06 14:22 48.67711 10.97758 13801 ft 325 kts 139°
2026-05-06 14:22 48.66136 11.00209 13332 ft 324 kts 139°
2026-05-06 14:22 48.64565 11.02650 12861 ft 322 kts 139°
2026-05-06 14:22 48.63008 11.05068 12408 ft 320 kts 139°
2026-05-06 14:23 48.61484 11.07434 11966 ft 318 kts 139°
2026-05-06 14:23 48.59928 11.09845 11512 ft 315 kts 139°
2026-05-06 14:23 48.58400 11.12205 11058 ft 312 kts 140°
2026-05-06 14:23 48.56712 11.14206 10585 ft 307 kts 149°
2026-05-06 14:24 48.54965 11.15985 10127 ft 307 kts 149°
2026-05-06 14:24 48.53315 11.18009 9804 ft 305 kts 133°
2026-05-06 14:24 48.52270 11.20731 9668 ft 298 kts 111°
2026-05-06 14:24 48.51984 11.23797 9450 ft 296 kts 88°
2026-05-06 14:25 48.52354 11.26852 9187 ft 296 kts 80°
2026-05-06 14:25 48.52648 11.28857 9024 ft 295 kts 80°
2026-05-06 14:25 48.53087 11.31879 8775 ft 293 kts 80°
2026-05-06 14:25 48.53519 11.34880 8518 ft 292 kts 80°
2026-05-06 14:26 48.53941 11.37843 8266 ft 290 kts 80°
2026-05-06 14:26 48.54361 11.40804 8036 ft 288 kts 80°
2026-05-06 14:26 48.54775 11.43746 7787 ft 286 kts 80°
2026-05-06 14:26 48.55189 11.46680 7545 ft 284 kts 80°
2026-05-06 14:27 48.55344 11.49614 7309 ft 279 kts 99°
2026-05-06 14:27 48.54784 11.52376 7063 ft 275 kts 120°
2026-05-06 14:27 48.53609 11.54603 6821 ft 271 kts 141°
2026-05-06 14:27 48.51997 11.56016 6583 ft 268 kts 162°
2026-05-06 14:28 48.50168 11.56445 6321 ft 267 kts 182°
2026-05-06 14:28 48.48373 11.55918 6078 ft 267 kts 196°
2026-05-06 14:28 48.46565 11.55108 5817 ft 267 kts 195°
2026-05-06 14:28 48.44782 11.54318 5573 ft 267 kts 195°
2026-05-06 14:29 48.43004 11.53536 5366 ft 263 kts 195°
2026-05-06 14:29 48.41302 11.52787 5236 ft 252 kts 194°
2026-05-06 14:29 48.39661 11.52063 5108 ft 240 kts 195°
2026-05-06 14:29 48.38105 11.51377 4997 ft 228 kts 195°
2026-05-06 14:30 48.36579 11.50911 4882 ft 218 kts 174°
2026-05-06 14:30 48.35242 11.51690 4790 ft 202 kts 136°
2026-05-06 14:30 48.34547 11.53418 4608 ft 195 kts 101°
2026-05-06 14:30 48.34591 11.55451 4342 ft 195 kts 82°
2026-05-06 14:31 48.34764 11.57464 4098 ft 193 kts 83°
2026-05-06 14:31 48.34922 11.59457 3872 ft 191 kts 83°
2026-05-06 14:31 48.35077 11.61421 3569 ft 185 kts 83°
2026-05-06 14:31 48.35223 11.63278 3308 ft 172 kts 82°
2026-05-06 14:32 48.35355 11.64963 3059 ft 155 kts 82°
2026-05-06 14:32 48.35465 11.66516 2866 ft 143 kts 82°
2026-05-06 14:32 48.35585 11.68001 2671 ft 143 kts 81°
2026-05-06 14:32 48.35712 11.69487 2493 ft 143 kts 80°
2026-05-06 14:33 48.35827 11.70974 2275 ft 143 kts 81°
2026-05-06 14:33 48.35940 11.72453 2101 ft 143 kts 80°
2026-05-06 14:33 48.36059 11.73933 1877 ft 143 kts 82°
2026-05-06 14:33 48.36169 11.75411 1678 ft 142 kts 82°
2026-05-06 14:34 48.36285 11.76883 1515 ft 141 kts 82°
2026-05-06 14:34 48.36392 11.78234 1476 ft 115 kts 83°
2026-05-06 14:34 48.36459 11.79111 1485 ft 52 kts 84°
2026-05-06 14:34 48.36480 11.79392 1486 ft 6 kts 84°
2026-05-06 14:35 48.36501 11.79648 1477 ft 33 kts 82°
2026-05-06 14:35 48.36506 11.79951 1486 ft 19 kts 98°
2026-05-06 14:35 48.36462 11.80148 1477 ft 21 kts 114°
2026-05-06 14:35 48.36414 11.80321 1481 ft 16 kts 112°
2026-05-06 14:36 48.36366 11.80480 1484 ft 15 kts 114°
2026-05-06 14:36 48.36323 11.80554 1486 ft 5 kts 152°
2026-05-06 14:36 48.36268 11.80573 1474 ft 11 kts 171°
2026-05-06 14:36 48.36200 11.80566 1486 ft 10 kts 214°
2026-05-06 14:37 48.36177 11.80408 1474 ft 22 kts 263°
2026-05-06 14:37 48.36161 11.80192 1476 ft 20 kts 263°
2026-05-06 14:37 48.36145 11.79994 1486 ft 18 kts 263°
2026-05-06 14:37 48.36132 11.79809 1479 ft 17 kts 262°
2026-05-06 14:38 48.36117 11.79641 1481 ft 15 kts 263°
2026-05-06 14:38 48.36104 11.79507 1476 ft 9 kts 240°
2026-05-06 14:38 48.36053 11.79485 1473 ft 7 kts 173°
2026-05-06 14:38 48.35968 11.79501 1483 ft 16 kts 173°
2026-05-06 14:39 48.35875 11.79518 1485 ft 0 kts 172°
2026-05-06 14:39 48.35836 11.79524 1482 ft 4 kts 175°
2026-05-06 14:40 48.35822 11.79526 1480 ft 0 kts 175°
2026-05-06 14:40 48.35803 11.79529 1485 ft 2 kts 174°
2026-05-06 14:41 48.35789 11.79532 1472 ft 2 kts 169°
2026-05-06 14:41 48.35783 11.79528 1481 ft 2 kts 204°
2026-05-06 14:41 48.35771 11.79485 1482 ft 7 kts 259°
2026-05-06 14:41 48.35735 11.79410 1478 ft 9 kts 192°
2026-05-06 14:42 48.35680 11.79415 1486 ft 7 kts 176°
2026-05-06 14:42 48.35630 11.79423 1481 ft 10 kts 172°
2026-05-06 14:42 48.35542 11.79436 1476 ft 12 kts 173°
2026-05-06 14:42 48.35470 11.79429 1476 ft 9 kts 213°
2026-05-06 14:43 48.35458 11.79388 1483 ft 4 kts 261°
2026-05-06 14:43 48.35455 11.79332 1486 ft 6 kts 264°
2026-05-06 14:43 48.35453 11.79313 1486 ft 0 kts 264°
2026-05-06 14:43 48.35453 11.79307 1486 ft 0 kts 264°